Powrót do katalogu

STARLINK-30515

AktywnyŁącznośćVLEO
NORAD 57983·PAYLOAD·🇺🇸 United States

Wystrzelony Sep 30, 2023 z Cape Canaveral Space Force Station

Loading…

Następne Przeloty (najbliższe 24 godziny)

TLE

ŚwieżeSource: CelesTrak SupGP

Epoka: Sep 14, 2026, 22:00 UTC

1 57983C 23151V   26257.91715278 -.00078327  00000+0 -28359-2 0  2570
2 57983  43.0024   5.3619 0001804 268.5327 107.5331 15.27629882    18

Śledź STARLINK-30515 w czasie rzeczywistym z AllMySat

Download on the App Store